Retour au catalogue

STARLINK-5524

ActifCommunicationsVLEO
NORAD 56474·PAYLOAD·🇺🇸 United States

Lancé May 10, 2023 depuis Vandenberg Space Force Base

Loading…

Prochains Passages (prochaines 24 heures)

TLE

FraisSource: CelesTrak SupGP

Époque: Sep 14, 2026, 20:44 UTC

1 56474C 23064AC  26257.86437500  .00475320  00000+0  38561-1 0  2577
2 56474  70.0004   7.6525 0003175 277.0944   8.7335 14.99343245    14

Suivez STARLINK-5524 en temps réel avec AllMySat

Download on the App Store